Voltar ao catálogo

DS-SAR

LostCiênciaVLEO
NORAD 57481·PAYLOAD·🇸🇬 Singapore

Lançado Jul 30, 2023 de Satish Dhawan Space Centre

Loading…

Próximas Passagens (próximas 24 horas)

TLE

ObsoletoSource: Space-Track

Época: Aug 9, 2025, 21:02 UTC

1 57481U 23109A   25221.87688657  .00126762  00000-0  65183-2 0  9996
2 57481   4.9911  68.1156 0023376 265.9833 303.4444 15.14209474112772

Acompanhe DS-SAR em tempo real com AllMySat

Download on the App Store